Location: Barruelo
(41.2448°N, 3.8231°W)
Time: 15:02:54
(UTC+00:00)

Cosmos 2084 Rocket - Pass Details

Date: 11 December 2025
Orbit: 545 x 569 km, 62.8° (Epoch: 16 January)

Event Time Altitude Azimuth Distance (km) Brightness Sun altitude
Rises 17:21:29 0° 328° (NNW) 2,770 7.0 -6.7°
Reaches altitude 10° 17:23:47 10° 335° (NNW) 1,872 6.1 -7.1°
Maximum altitude 17:27:52 47° 50° (NE) 758 3.6 -7.8°
Drops below altitude 10° 17:31:56 10° 125° (SE) 1,864 5.7 -8.5°
Sets 17:34:13 0° 131° (SE) 2,757 6.6 -8.9°
